Location: Newark
(25.0000°N, 73.5000°E)
Time: 11:11:22
(UTC+00:00)

Vanguard 1 - Visible Passes

Search period start: 01 March 2021 00:00
Search period end: 11 March 2021 00:00
Orbit: 649 x 3833 km, 34.2° (Epoch: 28 February)

Date Brightness Start Highest point End Pass type
(mag) Time Alt. Az. Time Alt. Az. Time Alt. Az.
01 Mar 10.4 23:38:03 30° N 23:38:03 30° N 23:41:52 10° NE visible
02 Mar 10.5 23:57:49 25° NNW 23:58:51 27° N 00:03:00 10° ENE visible
04 Mar 10.7 00:17:35 17° NW 00:20:02 27° N 00:24:19 10° ENE visible
05 Mar 10.7 00:37:19 10° NW 00:41:11 29° N 00:45:49 10° ENE visible
05 Mar 11.9 22:44:21 14° NE 22:44:21 14° NE 22:45:11 10° NE visible
06 Mar 10.5 00:58:10 10° NW 01:02:17 35° NNE 01:07:26 10° E visible
06 Mar 11.3 23:04:07 21° NNE 23:04:07 21° NNE 23:06:11 10° NE visible
07 Mar 13.5 16:10:40 10° S 16:12:53 12° S 16:12:53 12° S visible
07 Mar 10.7 23:23:51 26° N 23:23:51 26° N 23:27:23 10° ENE visible
08 Mar 13.4 16:29:17 10° SSW 16:32:48 15° S 16:32:48 15° S visible
08 Mar 10.5 23:43:36 25° NNW 23:44:44 29° N 23:48:44 10° ENE visible
09 Mar 13.4 16:48:55 10° SSW 16:52:48 17° SSW 16:52:48 17° SSW visible
10 Mar 10.4 00:03:22 20° NW 00:05:51 35° NNE 00:10:10 10° E visible
10 Mar 13.2 14:50:05 10° S 14:58:20 14° SSE 15:00:06 14° SE visible
10 Mar 13.4 17:09:11 10° SW 17:12:50 18° SSW 17:12:50 18° SSW visible
